Location: Tr�vern
(48.0333°N, 4.6000°W)
Time: 07:32:48
(UTC+00:00)

UNK - Pass Details

Date: 14 July 2020
Orbit: 667 x 685 km, 98.1° (Epoch: 04 August)

Event Time Altitude Azimuth Distance (km) Brightness Sun altitude
Exits shadow 01:33:05 21° 142° (SE) 1,513 5.2 -18.7°
Maximum altitude 01:36:02 56° 71° (ENE) 809 4.3 -18.5°
Drops below altitude 10° 01:40:35 10° 354° (N) 2,129 7.3 -18.3°
Sets 01:42:51 0° 350° (N) 3,051 8.2 -18.1°
